Total_Precipitation_Accumulation
0.05 0.12 0.32 0.59 0.78 0.95 0.85 0.72 0.65 0.60 0.55 0.58 0.62 0.74 0.86 0.87 0.76 0.68 0.66 0.67 0.74 0.83 0.89 0.86 0.81 0.72 0.68 0.64 0.55 0.46 0.37 0.30 0.24 0.22 0.17 0.12 0.08 0.06 0.04 0.04 0.03 0.03 0.02
0.07 0.14 0.27 0.38 0.45 0.59 0.71 0.73 0.67 0.68 0.77 0.94 1.10 1.31 1.43 1.35 1.23 1.15 1.12 1.13 1.12 1.07 0.99 0.95 0.85 0.76 0.65 0.55 0.47 0.42 0.37 0.33 0.26 0.21 0.18 0.13 0.08 0.05 0.03 0.02 0.02 0.01 0.01
0.06 0.10 0.16 0.25 0.35 0.52 0.70 0.76 0.77 0.88 1.06 1.27 1.57 1.79 1.76 1.65 1.64 1.58 1.54 1.41 1.27 1.16 1.07 0.96 0.88 0.78 0.68 0.58 0.49 0.41 0.36 0.29 0.22 0.17 0.14 0.12 0.08 0.05 0.03 0.02 0.01 0.01 0.01
0.04 0.07 0.15 0.25 0.38 0.60 0.74 0.82 0.90 1.05 1.29 1.48 1.68 1.82 1.83 1.81 1.83 1.63 1.48 1.30 1.14 1.05 0.96 0.85 0.75 0.65 0.55 0.45 0.35 0.27 0.21 0.17 0.13 0.10 0.09 0.08 0.06 0.06 0.04 0.02 0.01 0.00 0.00
0.04 0.06 0.12 0.25 0.40 0.59 0.73 0.84 0.95 1.16 1.37 1.53 1.63 1.74 1.85 1.82 1.64 1.36 1.13 0.95 0.84 0.76 0.64 0.52 0.43 0.38 0.31 0.24 0.16 0.12 0.09 0.08 0.07 0.06 0.06 0.05 0.05 0.05 0.06 0.03 0.01 0.01 0.00
0.04 0.07 0.13 0.21 0.33 0.48 0.64 0.72 0.83 1.08 1.34 1.51 1.56 1.56 1.56 1.41 1.17 0.96 0.79 0.64 0.57 0.50 0.42 0.33 0.25 0.20 0.16 0.11 0.08 0.07 0.06 0.06 0.06 0.05 0.04 0.04 0.05 0.04 0.05 0.05 0.03 0.02 0.01
0.05 0.08 0.15 0.21 0.31 0.39 0.49 0.61 0.74 0.92 1.12 1.25 1.26 1.17 1.03 0.88 0.77 0.69 0.59 0.46 0.37 0.30 0.22 0.14 0.09 0.08 0.06 0.05 0.05 0.05 0.04 0.04 0.05 0.04 0.04 0.04 0.04 0.05 0.08 0.10 0.08 0.06 0.02
0.08 0.12 0.20 0.27 0.32 0.39 0.51 0.63 0.74 0.88 0.98 0.95 0.88 0.75 0.66 0.58 0.52 0.42 0.29 0.20 0.15 0.11 0.08 0.04 0.03 0.03 0.03 0.03 0.03 0.03 0.03 0.04 0.06 0.06 0.08 0.08 0.07 0.09 0.12 0.15 0.18 0.15 0.07
0.14 0.21 0.28 0.32 0.36 0.40 0.47 0.54 0.60 0.65 0.64 0.55 0.48 0.42 0.37 0.30 0.23 0.16 0.11 0.08 0.06 0.05 0.04 0.03 0.03 0.04 0.04 0.04 0.06 0.06 0.07 0.08 0.10 0.10 0.10 0.10 0.09 0.09 0.10 0.12 0.17 0.24 0.20
0.20 0.28 0.33 0.34 0.33 0.34 0.38 0.38 0.36 0.33 0.30 0.26 0.23 0.20 0.17 0.13 0.10 0.08 0.07 0.06 0.05 0.05 0.04 0.05 0.06 0.06 0.06 0.07 0.09 0.10 0.10 0.12 0.12 0.11 0.11 0.11 0.10 0.12 0.13 0.14 0.16 0.23 0.29
0.29 0.37 0.37 0.31 0.26 0.23 0.23 0.24 0.21 0.18 0.16 0.15 0.13 0.11 0.09 0.06 0.05 0.04 0.05 0.05 0.05 0.05 0.06 0.06 0.07 0.07 0.08 0.08 0.10 0.10 0.10 0.10 0.09 0.09 0.10 0.10 0.11 0.12 0.12 0.15 0.20 0.24 0.31
0.34 0.37 0.35 0.27 0.22 0.21 0.19 0.18 0.17 0.16 0.14 0.12 0.09 0.07 0.06 0.04 0.04 0.04 0.05 0.05 0.06 0.07 0.07 0.08 0.09 0.08 0.08 0.08 0.10 0.10 0.09 0.09 0.10 0.09 0.10 0.09 0.10 0.11 0.12 0.16 0.18 0.21 0.27
0.45 0.42 0.36 0.26 0.20 0.18 0.17 0.16 0.16 0.14 0.10 0.07 0.05 0.04 0.04 0.04 0.05 0.06 0.07 0.07 0.08 0.09 0.09 0.09 0.09 0.08 0.08 0.09 0.10 0.09 0.08 0.08 0.09 0.09 0.11 0.11 0.12 0.13 0.16 0.20 0.22 0.24 0.27
0.43 0.33 0.27 0.20 0.17 0.16 0.15 0.14 0.12 0.10 0.07 0.05 0.04 0.04 0.05 0.07 0.08 0.09 0.09 0.09 0.10 0.10 0.10 0.08 0.08 0.08 0.09 0.07 0.06 0.05 0.05 0.06 0.06 0.08 0.10 0.12 0.16 0.19 0.22 0.23 0.25 0.31 0.37
0.37 0.32 0.26 0.21 0.18 0.16 0.15 0.14 0.13 0.10 0.07 0.06 0.06 0.08 0.09 0.09 0.10 0.11 0.12 0.12 0.11 0.09 0.08 0.07 0.07 0.08 0.07 0.03 0.02 0.02 0.02 0.04 0.06 0.08 0.11 0.12 0.15 0.19 0.23 0.26 0.32 0.42 0.49
0.38 0.35 0.28 0.23 0.20 0.20 0.20 0.18 0.15 0.12 0.10 0.11 0.12 0.12 0.11 0.11 0.13 0.12 0.12 0.11 0.10 0.08 0.06 0.05 0.05 0.05 0.03 0.01 0.01 0.00 0.01 0.04 0.08 0.12 0.12 0.08 0.09 0.11 0.16 0.24 0.31 0.41 0.49
0.45 0.40 0.33 0.28 0.27 0.27 0.25 0.23 0.21 0.19 0.18 0.16 0.15 0.14 0.12 0.12 0.11 0.10 0.10 0.09 0.07 0.06 0.04 0.04 0.03 0.04 0.03 0.00 0.00 0.00 0.01 0.06 0.12 0.15 0.13 0.08 0.07 0.12 0.17 0.20 0.22 0.29 0.41
0.51 0.45 0.40 0.39 0.39 0.38 0.35 0.31 0.26 0.21 0.18 0.16 0.14 0.12 0.10 0.09 0.09 0.08 0.06 0.05 0.04 0.04 0.04 0.04 0.03 0.05 0.03 0.00 0.00 0.00 0.02 0.06 0.09 0.11 0.11 0.12 0.14 0.16 0.15 0.16 0.22 0.35 0.45
0.42 0.41 0.41 0.45 0.47 0.44 0.36 0.27 0.20 0.16 0.13 0.12 0.10 0.08 0.07 0.05 0.04 0.04 0.04 0.04 0.04 0.04 0.04 0.03 0.04 0.05 0.05 0.01 0.00 0.00 0.02 0.04 0.05 0.06 0.09 0.12 0.17 0.15 0.20 0.28 0.40 0.57 0.72
0.31 0.37 0.42 0.42 0.39 0.33 0.24 0.18 0.15 0.12 0.11 0.08 0.06 0.04 0.03 0.02 0.02 0.03 0.04 0.05 0.04 0.04 0.03 0.03 0.04 0.05 0.07 0.02 0.00 0.00 0.02 0.03 0.03 0.05 0.08 0.14 0.19 0.19 0.30 0.39 0.56 0.77 0.90
0.33 0.36 0.36 0.33 0.27 0.20 0.15 0.13 0.11 0.09 0.06 0.04 0.02 0.02 0.02 0.01 0.01 0.03 0.05 0.05 0.04 0.04 0.04 0.04 0.04 0.06 0.05 0.03 0.00 0.00 0.02 0.04 0.05 0.09 0.15 0.22 0.26 0.25 0.37 0.55 0.69 0.93 0.99
0.35 0.35 0.31 0.24 0.16 0.11 0.09 0.09 0.07 0.04 0.02 0.02 0.02 0.02 0.01 0.01 0.01 0.03 0.05 0.05 0.04 0.04 0.04 0.04 0.04 0.04 0.05 0.04 0.01 0.00 0.01 0.03 0.08 0.18 0.28 0.31 0.31 0.34 0.51 0.65 0.84 1.09 1.17
0.31 0.25 0.19 0.14 0.09 0.06 0.05 0.06 0.04 0.02 0.02 0.02 0.02 0.02 0.02 0.01 0.01 0.03 0.04 0.04 0.04 0.04 0.04 0.04 0.04 0.04 0.05 0.05 0.01 0.01 0.01 0.03 0.09 0.22 0.38 0.39 0.36 0.52 0.76 0.95 1.07 1.22 1.18
0.19 0.13 0.08 0.06 0.05 0.03 0.03 0.03 0.02 0.01 0.03 0.04 0.03 0.03 0.04 0.04 0.03 0.04 0.03 0.03 0.04 0.03 0.04 0.05 0.05 0.05 0.06 0.05 0.04 0.04 0.04 0.06 0.09 0.18 0.33 0.46 0.51 0.68 0.94 1.12 1.20 1.23 1.14
0.08 0.06 0.04 0.04 0.03 0.02 0.02 0.02 0.02 0.02 0.03 0.04 0.04 0.04 0.04 0.04 0.05 0.05 0.02 0.01 0.02 0.01 0.03 0.05 0.07 0.08 0.07 0.05 0.05 0.08 0.09 0.10 0.14 0.18 0.25 0.36 0.49 0.69 0.89 1.01 1.05 1.02 0.97
0.05 0.04 0.03 0.02 0.01 0.01 0.01 0.01 0.01 0.01 0.02 0.03 0.03 0.03 0.02 0.02 0.02 0.04 0.04 0.01 0.01 0.01 0.01 0.03 0.05 0.06 0.06 0.04 0.04 0.06 0.10 0.13 0.18 0.22 0.32 0.45 0.58 0.74 0.86 0.93 0.92 0.86 0.81